www.pogodaiklimat.ru

Погода и климат >> Архив погоды >> Испания >> Zaragoza


ПОГОДА в Zaragoza

  • Прогноз погоды в Zaragoza
  • Монитор погоды в Zaragoza
  • Климат города

АРХИВ ПОГОДЫ в Zaragoza

Время (UTC), дата Ветер
(напр.,м/с)
 
Видим.   Явления Облачность Т
(С)
Тd
(С)
f
(%)
Тe
(С)
Тes
(С)
Комфортность P
(гПа)
Po
(гПа)
Тmin
(С)
Tmax
(С)
R
(мм)
R24
(мм)
S
(см)
18 11.10 ЮВ 4 25 км {дождь} 8/5 1500 м
[Sc Ac As Cs]
+22.5 +13.8 58 +26 +26 жарко 1013.6 984.1 +25.5
21 11.10 Ю 3 25 км 8/5 1000 м
[Sc Ac As Cs]
+22.0 +13.6 59 +25 +25 комфорт 1015.4 985.8
00 12.10 В 2 25 км 9/3 1000 м
[Sc Ac As Cs]
+18.9 +14.2 74 +20 +20 1017.5 987.5
03 12.10 В 2 25 км 9/1 1500 м
[Sc Ac As Cs]
+16.9 +13.8 82 +17 +17 1018.1 987.9
06 12.10 ЮВ 2 25 км 6/3 1500 м
[Sc Ac und Cs]
+16.0 +14.7 92 +16 +16 1019.9 989.6 +15.9
09 12.10 В 4 30 км 8/3 1500 м
[Sc Cs]
+21.3 +14.0 63 +24 +25 комфорт 1021.4 991.5
12 12.10 В 3 30 км 8/4 1500 м
[Cu med, cong Cs]
+25.5 +15.8 55 +29 +33 душно 1020.7 991.3
15 12.10 В 2 30 км 8/4 1500 м
[Cu med, cong As op Cs]
+27.8 +14.4 44 +30 +32 жарко 1019.3 990.1
18 12.10 Ю 2 30 км 8/1 1500 м
[Sc diur, vesp Ac und Cs]
+24.2 +13.4 51 +26 +26 жарко 1019.8 990.3 +28.3
21 12.10 В 2 30 км 4/1 2000 м
[Sc Cs]
+20.9 +13.8 64 +24 +24 комфорт 1020.9 991.0
00 13.10 ЮВ 2 20 км 3/1 1500 м
[Sc Cs]
+17.7 +13.2 75 +18 +18 1020.4 990.2
03 13.10 В 2 15 км 1/1 2000 м
[Sc]
+16.4 +14.2 87 +16 +16 1019.9 989.6
06 13.10 В 1 3000 м дымка 10/10 100 м
[St]
+16.6 +15.0 90 +17 +17 1020.0 989.7 +16.0
09 13.10 В 4 4000 м дымка 10/10 100 м
[St]
+19.7 +17.5 87 +22 +22 комфорт 1020.0 990.1
12 13.10 ЮВ 5 9000 м мгла 8/3 600 м
[Sc Ac trans Cs]
+24.4 +17.4 65 +28 +30 душно 1016.7 987.3
15 13.10 ЮВ 6 12 км 8/1 600 м
[Cu hum Ac trans Cs]
+27.3 +15.6 49 +30 +31 душно 1012.9 983.9
18 13.10 ЮВ 6 15 км 10/0
[Ac und Cs]
+24.3 +15.8 59 +27 +27 жарко 1012.4 983.1 +27.6
21 13.10 ЮВ 5 15 км 8/0
[Ac und Cs]
+20.7 +15.7 73 +24 +24 комфорт 1012.4 982.8
00 14.10 ЮВ 5 15 км 3/0
[Ac und Cs]
+18.9 +15.6 81 +20 +20 1011.4 981.6
03 14.10 В 2 15 км 3/0
[Ac und Ci fib]
+17.5 +15.1 86 +18 +18 1010.0 980.1
06 14.10 ЮВ 5 15 км 5/3 1000 м
[Sc Cs]
+16.9 +15.2 90 +16 +16 1007.5 977.6 +16.7
09 14.10 В 4 15 км 8/5 1000 м
[Sc Ac As Cs]
+20.1 +15.9 77 +23 +24 комфорт 1006.5 977.0
12 14.10 С 2 20 км слабый дождь {гроза} 9/3 1000 м
[Cb calv Ac As]
+19.3 +14.3 73 +22 +24 комфорт 1005.5 975.9 0.8
15 14.10 ЮВ 3 15 км слабый ливневой дождь 9/4 600 м
[Cb cap As op]
+18.2 +14.9 81 +19 +19 1005.0 975.3 0.2
18 14.10 З 3 15 км 9/6 600 м
[Sc Ac As]
+15.3 +14.0 92 +15 +15 1008.3 978.2 +21.8 4
21 14.10 СЗ 7 20 км 10/5 600 м
[Sc Ac As]
+14.4 +12.1 86 +12 +12 1008.4 978.2
00 15.10 СЗ 8 20 км 10/6 600 м
[Sc Ac As]
+13.7 +11.0 84 +11 +11 1007.7 977.4
03 15.10 СЗ 8 20 км {дождь} 10/10 600 м
[Cu Sc]
+13.3 +9.5 78 +11 +11 1007.5 977.2 0.0
06 15.10 СЗ 6 30 км {дождь} 4/0
[Ac As]
+12.8 +9.2 79 +10 +10 1007.9 977.5 +12.6
09 15.10 СЗ 9 40 км 5/1 1000 м
[Sc Ac As Ci fib]
+15.9 +8.4 61 +14 +14 1008.5 978.4
12 15.10 СЗ 4 40 км 4/1 1000 м
[Cu hum Ac As Ci fib]
+19.8 +6.2 41 +21 +25 комфорт 1007.7 978.0
15 15.10 С 2 30 км 6/1 1000 м
[Cu hum Ac und Ci fib]
+20.2 +7.2 43 +22 +25 комфорт 1006.9 977.3
18 15.10 Ю 1 30 км 9/1 1000 м
[Sc Ac und Ci fib]
+19.5 +8.8 50 +21 +21 комфорт 1008.6 978.9 +21.2
21 15.10 В 2 30 км 8/1 1000 м
[Sc Ac und Ci fib]
+17.2 +9.1 59 +18 +18 1011.1 981.1
00 16.10 В 2 30 км 1/0
[Ci fib]
+13.7 +10.7 82 +13 +13 1012.6 982.2
03 16.10 З 1 30 км ясно +12.1 +9.3 83 +12 +12 1013.3 982.7
06 16.10 Ю 1 30 км 1/0
[Ac trans]
+10.1 +7.9 86 +11 +11 1015.3 984.4 +10.1
09 16.10 СЗ 3 30 км 1/0
[Ac trans]
+15.1 +9.5 69 +15 +17 1016.9 986.5
12 16.10 ЮЗ 2 30 км 3/1 1000 м
[Cu hum Ac trans Ci fib]
+20.3 +9.8 51 +23 +30 комфорт 1016.1 986.3
15 16.10 С 2 25 км 3/1 1000 м
[Cu hum Ac trans]
+22.5 +9.3 43 +24 +27 комфорт 1015.4 985.8
18 16.10 З 2 20 км 1/1 1000 м
[Sc diur, vesp Ac trans]
+19.7 +9.8 53 +21 +21 комфорт 1016.5 986.6 +22.8
21 16.10 СВ 2 25 км 1/1 1000 м
[Sc Ci fib]
+15.4 +9.3 67 +16 +16 1018.4 988.0
00 17.10 СЗ 3 25 км ясно +14.5 +9.5 72 +14 +14 1018.2 987.7
03 17.10 С 1 30 км 1/0
[Ac und]
+12.6 +9.2 80 +13 +13 1018.2 987.5
06 17.10 З 4 25 км 1/0
[Ac und]
+12.8 +10.0 83 +11 +11 1018.4 987.7 +11.3
09 17.10 СЗ 4 15 км 1/1
[Sc Ac und]
+15.2 +10.8 75 +14 +16 1018.4 988.0
12 17.10 З 1 15 км 3/1 1000 м
[Sc Cs]
+20.2 +10.9 55 +23 +31 комфорт 1015.5 985.7
15 17.10 С 1 20 км 3/3 1000 м
[Cu hum Ac cuf Cs]
+23.2 +10.6 45 +25 +28 комфорт 1012.5 983.1
18 17.10 ЮВ 1 20 км 3/0
[Ac As Ci fib]
+19.8 +9.7 52 +22 +22 комфорт 1012.6 982.8 +23.5
21 17.10 В 2 20 км 1/0
[Ac trans]
+15.6 +10.1 70 +16 +16 1014.3 984.0
00 18.10 ЮЗ 1 20 км 1/0
[Ac trans]
+13.5 +9.7 78 +14 +14 1014.4 983.9
03 18.10 З 1 20 км 1/0
[Ac trans]
+11.9 +9.3 84 +12 +12 1013.5 982.9
06 18.10 СЗ 2 20 км 6/0
[Ac und Ci]
+11.7 +9.6 87 +11 +11 1013.5 982.8 +11.5
09 18.10 СЗ 7 18 км 6/0
[Ac und Cs]
+15.2 +11.0 76 +13 +14 1013.7 983.4
12 18.10 СЗ 5 18 км 8/5 1500 м
[Sc Ac As]
+19.7 +11.7 60 +21 +22 комфорт 1012.5 982.7

 

Местоположение метеостанции Zaragoza (Испания): широта 41.67 долгота -1.00 высота над уровнем моря 258 м.

В архиве по умолчанию представлена погода в Zaragoza за последнюю неделю. Архивные данные за месяц целиком и за предыдущие месяцы, начиная с января 2011 года, Вы можете получить, выбрав интересующий диапазон дат из раскрывающегося списка и нажав кнопку "Ввод!".


*Определитесь, кто Вы:
робот инопланетянин человек

Внимание! Время в таблицах - всемирное. Для получения местного времени необходимо прибавить поправку, которая в Zaragoza равна 1 ч.

Смотрите также архив погоды в соседних городах и на ближайших метеорологических станциях:

Погода в Bardenas Reales (Испания) (71 км)
Погода в Calamocha (Испания) (86 км)
Погода в Molina de Aragon (Испания) (117 км)
Погода в Soria (Испания) (123 км)
Погода в Pamplona (Испания) (133 км)
Погода в Lerida (Испания) (133 км)
Погода в Refugio de Casa Piedra (Испания) (138 км)
Погода в Logrono (Испания) (140 км)
Погода в Refugio de Belagua (Испания) (143 км)
Погода в Teruel (Испания) (147 км)

Пояснения к столбцам:

Ветер - указаны скорость ветра в м/с - средняя за 10 мин, порывы в срок и между сроками (в фигурных скобках) и направление, откуда дует ветер: С - северный, СВ - северо-восточный, В - восточный, ЮВ - юго-восточный, Ю - южный, ЮЗ - юго-западный, З - западный, СЗ - северо-западный.
Видимость - горизонтальная дальность видимости в метрах или километрах. При видимости от 1 до 10 км при отсутствии осадков обычно наблюдается дымка, при ухудшении видимости до 1 км и менее - туман. В сухую погоду видимость может ухудшаться дымом, пылью или мглою.
Явления - указаны атмосферные явления, наблюдавшиеся в срок или в последний час перед сроком; фигурными скобками обозначены явления, наблюдавшиеся между сроками (за 1-3 часа до срока); квадратными скобками обозначены град или гололедные отложения с указанием их диаметра в мм.
Облачность - указаны через наклонную черту общая и нижняя облачность в баллах и высота нижней границы облаков в метрах; квадратными скобками обозначены формы облаков: Ci - перистые, Cs - перисто-слоистые, Cc - перисто-кучевые, Ac - высококучевые, As - высокослоистые, Sc - слоисто-кучевые, Ns - слоисто-дождевые, Cu - кучевые, Cb - кучево-дождевые. Подробнее классификацию облаков см. в Атласе облаков (PDF).
T - Температура воздуха - температура, измеренная на высоте 2 м над землей.
Td - Температура точки росы - температура, при понижении до которой содержащийся в воздухе водяной пар достигнет насыщения.
f - Относительная влажность воздуха - влажноcть воздуха, измеренная на высоте 2 м над землей.
Te - Эффективная температура - температура, которую ощущает одетый по сезону человек в тени. Характеристика душности погоды. При расчете учитывается влияние влажности воздуха и скорости ветра на теплоощущения человека.
Tes - Эффективная температура на солнце - температура, которую ощущает человек, с поправкой на солнечный нагрев. Характеристика знойности погоды. Зависит от высоты солнца над горизонтом, облачности и скорости ветра. Ночью, в пасмурную погоду, а также при ветре 12 м/с и более поправка равна нулю.
P - Атмосферное давление - приведенное к уровню моря атмосферное давление.
Po - Атмосферное давление - измеренное на уровне метеостанции атмосферное давление.
Tmin - Минимальная температура - минимум температуры воздуха на высоте 2 м над землей.
Tmax - Максимальная температура - максимум температуры воздуха на высоте 2 м над землей.
R - Количество осадков - Количество выпавших осадков за период времени, мм. При наведении курсора мыши на число - период времени, за который выпало указанное количество осадков.
R24 - Количество осадков - Количество выпавших осадков за 24 часа, мм.
S - Снежный покров - Высота снежного покрова, см. При наведении курсора мыши на число - состояние снежного покрова и степень покрытия местности в баллах.